Location: Unspecified
(0.0000°N, 0.0000°E)
Time: 13:31:47
(UTC+00:00)

Vanguard 2 - Pass Details

Date: 09 December 2017
Orbit: 553 x 2939 km, 32.9° (Epoch: 19 July)

Event Time Altitude Azimuth Distance (km) Brightness Sun altitude
Rises 00:14:21 0° 315° (NW) 3,492 - -66.6°
Reaches altitude 10° 00:16:30 10° 319° (NW) 2,765 - -66.4°
Maximum altitude 00:23:14 60° 39° (NE) 1,562 - -66.0°
Exits shadow 00:33:13 14° 115° (ESE) 4,118 11.3 -65.1°
Drops below altitude 10° 00:34:43 10° 116° (ESE) 4,580 11.6 -65.0°
Sets 00:39:17 0° 119° (ESE) 5,947 12.4 -64.5°
